Wind_Speed
13 12 12 12 12 12 12 13 13 13 13 12 12 12 12 11 10 10 9 10 10 9 9 10 10 10 10 11 11 11 11 11 10 10 9 9 8 8 8 9 9 10 13 13 12 12 10 11 15 19 21 21 21 21 20 19 19 19 18 18 18 18 17 17 17 17 17 16 16 16 15 15 15 14 14 13 12 12 11 11 10 9 9 8 8
14 13 13 13 13 13 13 13 13 12 12 11 11 12 12 11 11 10 10 11 10 9 9 9 10 9 10 11 11 12 12 11 10 9 9 9 9 8 7 8 8 11 13 11 10 10 10 13 16 20 21 21 21 22 22 21 20 20 20 20 19 19 19 18 18 17 17 17 17 16 16 16 16 15 15 14 14 13 13 12 11 11 10 9 9
15 14 14 14 13 13 12 12 13 11 11 11 11 11 11 12 12 10 10 11 11 10 9 10 11 9 9 10 10 11 12 11 10 9 9 9 9 9 8 7 7 9 12 12 11 9 11 14 17 18 20 21 22 22 22 22 22 21 20 20 20 20 20 20 19 19 18 18 18 18 17 17 17 17 16 16 15 14 14 13 13 12 11 11 10
15 15 15 15 14 14 13 12 13 12 12 12 11 11 12 12 11 9 8 8 9 10 10 11 11 9 8 8 9 9 10 11 11 10 10 10 9 9 8 7 7 8 10 12 12 11 12 15 16 18 19 20 22 22 22 22 22 22 21 20 21 21 21 21 21 20 19 19 19 19 19 18 18 18 17 17 17 16 15 15 14 13 12 12 12
16 16 16 16 15 15 14 13 13 13 14 14 11 10 10 10 10 9 8 8 8 8 8 9 9 8 7 7 8 8 9 10 11 11 11 11 10 9 9 8 8 9 10 11 13 13 13 15 16 17 19 20 21 21 21 20 20 21 22 22 21 21 21 21 21 21 20 20 19 19 19 20 19 19 19 18 18 17 17 16 15 15 14 13 13
16 17 17 17 16 15 15 14 13 14 14 12 10 9 8 8 8 8 7 7 8 8 7 8 7 7 7 7 8 9 9 10 10 11 11 11 11 12 11 10 9 9 10 11 13 13 14 15 16 16 17 19 20 20 20 19 19 21 22 23 23 22 22 21 22 22 21 20 20 20 20 20 20 20 20 20 19 19 18 18 17 16 15 15 14
16 17 17 17 17 16 16 13 12 14 12 9 8 7 6 6 6 6 6 6 8 7 7 8 8 8 7 8 9 9 9 9 9 10 11 12 13 13 13 13 11 10 10 11 12 13 14 15 15 16 16 17 18 19 19 20 20 21 22 23 24 23 22 22 21 22 22 22 21 21 21 21 21 21 20 20 20 20 20 19 18 18 17 17 16
16 16 16 17 17 16 15 12 10 13 11 6 6 5 4 4 4 5 6 6 7 8 8 8 8 9 9 9 9 8 8 8 9 9 11 12 13 14 13 12 11 10 9 10 11 12 13 15 16 18 18 17 17 19 20 21 21 22 22 23 23 23 23 23 22 22 22 23 23 22 22 22 22 21 21 21 21 21 21 20 20 19 19 18 18
14 14 15 16 16 14 12 10 9 9 7 4 4 4 4 5 5 6 6 7 7 9 8 8 9 10 10 10 8 8 8 7 7 9 10 12 13 12 11 10 9 9 9 10 11 12 13 14 16 17 17 16 16 17 19 20 21 21 22 22 22 22 23 24 23 23 23 23 24 24 24 23 23 23 22 22 22 22 22 21 21 21 20 20 19
13 13 13 12 12 10 8 7 7 6 4 4 5 5 6 7 8 7 7 8 8 9 9 8 9 10 11 9 8 7 7 6 6 7 8 9 10 10 10 9 9 9 10 10 10 10 11 13 14 15 16 15 15 16 17 18 18 19 20 22 23 23 24 24 24 24 24 24 24 25 25 25 25 24 23 23 23 23 23 22 22 22 22 21 21
10 9 9 8 7 7 6 6 6 5 4 5 6 7 8 9 9 9 9 8 8 9 8 9 8 9 10 9 7 6 5 5 4 4 5 5 6 7 7 7 7 7 7 7 7 7 8 9 11 13 14 15 15 16 17 16 16 19 21 23 25 26 25 25 25 25 25 25 25 25 26 26 26 25 25 24 24 24 24 24 24 23 23 23 22
7 8 8 7 6 6 6 6 6 5 5 6 8 10 9 10 10 9 9 9 8 7 7 8 9 9 9 7 6 5 4 1 4 6 6 5 5 4 5 4 4 4 4 5 5 6 6 6 7 9 11 13 14 16 16 15 16 19 20 23 25 26 25 25 25 25 25 26 26 26 26 27 27 27 26 26 25 25 25 25 25 25 24 24 24
8 9 7 7 6 6 6 6 5 5 6 8 10 10 9 10 9 8 9 8 8 5 5 7 7 8 8 8 6 3 1 3 6 10 7 6 6 4 4 4 4 5 5 6 6 7 7 6 6 6 8 10 11 12 13 14 16 18 19 21 22 22 24 25 25 25 26 26 26 27 27 27 28 28 28 28 27 26 26 26 26 26 26 25 25
10 9 8 7 7 7 7 6 6 6 8 9 9 8 8 8 8 7 7 7 6 2 4 5 5 7 6 7 7 4 2 4 4 10 8 8 7 6 6 5 5 6 6 7 7 8 7 7 6 5 6 8 9 10 10 11 13 15 17 18 18 19 22 24 25 26 26 27 28 28 29 29 28 28 29 29 29 28 27 27 28 28 27 27 26
11 10 9 8 8 7 7 5 4 6 8 9 7 6 6 6 6 5 5 5 3 0 3 4 5 7 4 4 4 3 3 1 6 9 6 8 7 6 7 6 6 7 7 8 8 8 8 7 6 6 6 7 8 9 9 9 10 11 14 16 17 19 20 21 23 24 25 28 29 29 29 30 30 29 28 29 30 30 29 29 29 29 29 29 28
11 10 9 8 8 6 5 4 4 6 7 6 5 4 4 4 4 3 3 3 2 0 2 4 5 6 3 2 1 2 1 2 11 8 2 6 5 5 9 7 8 8 6 7 8 8 8 7 7 6 7 7 8 9 10 10 10 11 12 13 15 17 19 21 22 22 23 26 30 30 29 29 30 30 29 28 29 31 31 30 30 31 30 30 30
11 10 9 8 7 5 5 4 4 4 4 4 4 3 3 2 2 2 2 2 2 1 2 3 5 3 1 1 1 2 1 3 9 4 3 8 2 4 10 10 10 9 8 9 9 9 9 8 8 8 8 8 8 9 9 10 11 11 12 12 12 14 16 19 20 21 23 25 27 29 29 29 29 29 30 30 30 30 31 31 31 31 32 32 31
11 10 8 7 6 5 5 5 4 3 3 4 3 3 3 2 2 1 1 1 2 2 2 3 4 2 1 0 1 2 3 4 5 2 7 8 1 5 10 12 12 9 10 13 12 11 10 9 10 9 9 9 8 9 9 9 10 11 12 12 13 13 14 15 16 18 21 23 24 25 26 28 29 28 29 31 31 31 31 31 32 32 32 32 32
10 9 7 6 6 5 6 6 5 4 4 4 4 3 2 3 2 2 1 1 1 2 2 3 2 0 0 0 2 3 4 3 2 3 6 4 5 10 11 12 11 10 14 16 14 13 12 12 12 11 11 10 10 10 9 10 10 11 11 11 12 12 13 13 13 15 18 20 21 23 24 25 28 28 30 31 32 33 33 31 31 32 32 32 33
9 8 7 7 7 7 7 7 6 5 4 5 4 3 2 3 2 2 1 1 1 1 1 1 1 0 0 1 1 3 3 3 2 3 3 3 8 10 10 15 11 10 16 16 14 14 13 14 14 14 13 12 12 11 11 11 11 12 13 12 12 12 13 13 13 13 15 17 18 21 23 24 25 27 29 30 31 33 34 32 31 31 31 32 32
10 9 8 7 7 7 8 8 7 6 5 5 5 4 3 3 2 1 1 2 2 2 2 1 2 1 1 1 1 2 2 3 3 3 2 3 4 4 9 15 11 9 14 15 13 13 13 15 15 15 14 14 14 14 14 15 15 15 15 15 15 15 14 15 14 13 13 15 17 19 22 23 24 26 27 29 30 31 33 33 31 30 30 32 33
11 10 9 8 8 8 8 8 7 6 5 4 4 5 4 3 2 2 2 2 3 3 3 2 2 2 2 1 1 1 1 1 2 3 3 4 4 6 8 9 8 10 13 14 12 12 13 14 15 14 15 15 16 16 16 17 17 17 17 16 16 16 16 16 16 15 14 15 17 18 20 22 24 26 27 28 29 29 31 33 33 32 31 32 33
12 11 10 9 9 9 8 8 7 6 5 4 4 3 3 3 3 2 2 2 3 3 3 3 3 3 2 2 2 2 2 2 3 5 4 4 4 6 8 7 7 8 11 14 10 9 11 13 14 14 15 16 17 18 19 18 18 18 18 18 18 17 17 17 17 17 16 16 17 18 20 21 23 24 26 27 28 28 29 32 33 33 32 32 33
13 12 11 10 10 9 9 8 7 6 6 5 5 4 3 3 3 3 3 2 2 3 3 3 3 3 3 3 2 2 3 4 4 6 6 5 4 5 7 8 6 7 12 14 10 8 9 12 14 13 14 16 18 20 20 20 20 20 20 20 20 20 20 18 18 18 18 18 17 18 19 21 22 23 24 25 26 27 29 31 32 33 33 34 33
15 13 12 11 10 10 9 8 7 7 7 6 6 5 3 3 3 4 4 4 3 3 3 3 4 4 3 4 4 3 3 3 4 5 6 6 5 6 6 5 5 8 13 12 11 11 8 10 14 13 14 16 19 21 22 21 21 21 22 23 23 22 22 21 20 19 18 19 19 19 19 20 21 22 23 24 25 26 28 30 31 32 33 34 34
16 15 13 12 11 10 9 9 8 8 7 7 7 6 5 4 3 4 4 4 4 4 4 5 4 4 4 5 5 4 4 4 5 6 7 7 6 6 5 5 6 8 9 8 10 10 8 12 16 15 15 18 20 22 23 23 23 23 24 24 25 24 24 23 22 21 20 20 21 21 22 21 21 22 23 24 25 26 27 29 30 30 31 32 33
16 15 13 12 11 10 10 10 9 7 7 6 6 6 5 5 4 4 4 4 4 5 5 6 6 6 6 6 6 6 6 6 7 8 9 9 8 7 5 4 4 4 4 6 10 10 10 15 18 17 17 20 22 23 24 24 24 25 26 26 26 26 25 25 23 22 22 22 22 22 23 23 23 22 23 23 25 26 27 28 29 30 31 31 31
16 14 13 13 12 12 11 10 8 7 6 5 5 6 6 6 6 6 5 5 5 6 6 7 8 7 7 7 8 8 8 7 8 9 10 10 10 10 8 7 5 2 2 3 5 7 9 13 15 18 20 22 24 24 24 25 25 26 27 28 28 28 26 26 25 23 23 23 23 24 24 25 25 24 23 24 24 25 27 29 30 31 32 32 31
16 14 13 13 13 12 11 9 8 8 7 6 6 7 7 7 8 9 8 8 8 7 7 8 10 9 9 9 9 9 9 9 10 10 11 11 12 13 12 11 8 3 1 2 2 4 9 13 12 16 23 25 26 26 25 24 25 26 28 28 29 28 27 26 25 24 24 24 24 24 25 25 26 26 25 25 25 25 26 28 29 31 32 32 32
16 14 14 14 14 13 11 10 9 9 9 9 9 9 9 10 10 11 10 10 11 10 10 10 11 11 11 11 11 10 10 10 11 12 13 13 14 15 14 13 12 9 6 3 3 6 11 15 16 18 24 27 28 28 27 25 24 25 27 28 28 28 28 27 26 25 24 24 24 25 25 24 25 26 26 26 26 25 25 27 28 30 31 32 32
16 15 15 15 15 14 13 12 11 11 10 10 10 11 11 12 12 12 11 11 12 12 12 12 12 11 12 12 12 12 12 12 12 13 14 15 16 17 16 15 14 15 13 8 4 6 11 16 21 24 26 27 28 29 29 26 24 24 26 27 27 27 27 28 28 26 25 24 24 25 25 25 25 26 27 27 27 26 26 27 27 29 30 31 32
17 17 17 17 17 16 15 14 13 12 12 11 11 12 12 12 13 13 12 12 12 13 13 14 13 12 13 13 13 14 14 14 14 14 15 16 17 18 18 18 17 17 17 12 6 9 17 21 24 27 27 28 30 29 29 29 25 24 25 26 27 27 27 28 29 29 28 27 26 25 26 25 25 25 26 27 27 27 27 27 28 28 30 31 32
18 18 19 19 18 18 16 16 15 14 14 13 13 13 12 13 13 14 14 13 13 14 15 15 15 15 15 15 16 15 15 16 16 16 16 16 17 19 20 20 20 19 19 17 12 13 20 22 23 27 27 28 31 31 31 30 27 25 26 26 27 27 27 28 30 30 31 30 29 27 26 26 26 26 26 27 27 27 27 27 27 28 29 31 32
19 19 20 20 20 19 18 17 16 15 15 15 15 15 15 15 15 15 14 14 14 15 16 17 17 17 17 18 17 17 16 16 16 16 16 16 17 19 20 21 23 23 23 23 19 15 18 22 23 26 27 26 29 33 32 31 30 28 27 27 27 27 28 28 29 31 32 31 31 30 28 27 26 26 27 27 27 28 28 28 28 28 28 30 32
20 20 20 21 21 21 20 19 18 18 18 17 17 17 17 18 17 17 15 14 14 15 16 18 18 18 18 19 18 17 16 16 16 16 16 16 16 18 19 21 23 25 25 25 23 19 19 23 22 23 26 26 29 33 34 32 31 29 27 29 29 28 28 29 29 31 32 32 33 33 32 29 27 26 26 27 28 28 29 29 29 28 28 29 31
22 21 21 22 23 22 21 21 20 20 19 19 19 19 20 20 20 19 18 16 15 16 17 17 17 17 18 18 18 16 15 16 16 16 16 16 16 17 18 19 21 23 25 25 25 23 22 23 23 23 25 26 28 32 34 32 31 30 28 28 29 28 29 29 30 31 32 33 33 34 33 32 29 27 26 27 27 28 29 30 30 30 28 28 30
23 22 22 23 24 24 23 22 22 21 21 20 21 21 21 21 21 20 20 19 18 17 17 17 16 17 17 18 17 15 15 16 16 17 17 16 16 17 18 19 20 21 22 22 23 24 23 23 25 26 26 26 27 30 32 31 29 30 31 30 28 27 28 30 31 33 33 34 35 35 34 33 31 29 27 27 27 27 28 29 31 31 30 29 29
23 23 23 24 26 26 24 23 23 23 22 21 21 21 21 20 19 19 20 21 20 19 18 18 18 18 18 18 17 15 15 16 17 18 18 17 16 16 18 19 19 19 20 22 22 22 22 22 22 23 24 24 25 26 29 28 24 24 29 30 28 27 28 29 31 34 35 35 35 34 34 33 32 30 28 26 26 27 28 28 29 31 31 30 29
24 24 24 26 27 26 24 23 23 22 21 20 20 19 18 17 16 17 18 20 21 20 20 20 20 19 19 18 17 17 16 16 17 18 18 17 17 17 17 18 18 18 20 23 22 20 19 18 18 19 20 23 22 22 24 26 24 24 24 23 23 26 29 29 31 34 36 35 34 34 33 32 31 30 29 28 27 27 27 28 29 30 31 31 31
25 26 27 27 26 24 23 22 21 20 19 19 18 17 15 13 14 16 17 18 19 20 20 20 20 19 19 18 18 18 18 18 17 18 18 18 17 17 17 17 18 19 21 22 21 17 15 15 16 18 21 22 22 22 22 21 21 24 25 22 19 22 28 30 31 34 34 32 33 34 34 32 30 30 31 31 31 29 28 28 28 30 31 32 32
26 27 29 27 24 23 22 22 20 19 18 18 18 16 13 13 13 14 15 17 18 18 18 18 18 18 18 19 19 19 20 19 18 18 18 17 17 18 18 18 18 20 21 20 19 16 13 14 16 18 20 20 20 22 23 20 18 21 27 26 21 21 26 27 29 33 31 29 30 30 31 32 30 30 31 30 31 31 30 29 28 29 31 33 33
28 28 28 26 24 23 23 22 21 21 20 20 19 17 15 14 13 14 15 16 17 17 18 17 18 18 19 19 20 20 20 20 19 18 18 18 18 18 18 19 19 20 21 20 18 17 14 14 16 18 19 19 21 24 25 22 18 19 24 24 20 22 25 21 23 30 29 26 26 26 31 36 32 28 30 31 31 31 30 30 29 28 29 32 34
30 27 28 27 25 24 24 23 24 23 22 22 21 19 16 15 15 16 16 17 18 18 19 18 19 20 20 21 22 21 21 21 19 18 18 18 18 18 18 19 19 19 20 19 19 18 15 15 17 19 19 20 23 26 26 22 18 18 21 21 20 24 25 20 19 24 28 29 27 27 33 38 35 29 30 33 34 32 30 30 30 30 29 30 32
31 28 27 28 27 26 25 26 26 24 23 22 21 20 18 17 18 18 18 19 20 20 20 20 21 22 23 23 23 23 22 21 19 18 18 18 18 18 19 19 19 19 20 20 20 19 17 17 18 20 22 22 23 25 24 20 17 18 21 21 22 25 25 22 20 23 30 34 32 30 31 35 37 32 29 33 35 32 31 31 31 31 31 30 30
32 29 27 28 28 27 27 28 28 26 24 23 22 20 20 20 20 20 21 21 22 22 22 22 22 24 25 24 24 23 22 20 19 18 18 19 19 19 19 20 21 21 21 20 21 20 20 19 19 21 24 23 22 23 26 24 21 22 24 23 24 25 24 23 25 28 32 34 33 32 31 33 39 36 31 33 36 34 33 32 31 31 32 31 30
31 30 29 29 29 28 28 30 30 28 26 24 22 21 21 21 21 21 21 22 23 24 24 23 24 25 24 23 22 22 21 20 18 18 19 20 19 19 20 21 22 23 22 20 19 19 19 20 21 24 27 26 23 24 28 28 25 26 28 25 25 27 26 28 32 33 34 36 34 29 27 31 38 37 32 32 34 35 35 34 33 32 32 32 31
31 31 30 29 29 29 30 31 31 30 28 26 23 21 20 21 21 21 21 22 23 24 24 25 25 25 23 22 21 20 20 19 19 19 19 19 20 20 22 23 24 24 23 21 19 19 20 23 25 26 28 29 27 25 26 26 27 29 29 27 27 28 28 30 33 32 32 37 35 25 22 30 36 34 32 32 31 32 34 34 34 33 32 32 32
31 31 30 29 30 31 31 32 32 32 30 27 24 22 21 20 21 21 22 22 22 24 25 26 26 25 23 20 19 19 19 20 19 18 18 18 19 21 22 24 25 25 25 22 19 19 22 24 25 25 26 28 28 27 26 26 28 29 28 27 26 24 25 26 26 25 27 33 35 28 24 30 35 34 33 32 29 30 33 33 34 32 32 33 32
31 31 30 30 30 31 31 32 33 33 31 28 25 23 22 22 22 22 23 23 23 23 24 26 27 26 22 17 17 18 20 20 18 17 17 18 20 22 23 24 24 24 25 23 20 21 22 23 23 24 25 27 27 27 26 24 23 23 23 24 23 20 21 20 18 22 26 29 36 35 28 29 35 35 33 30 29 30 30 31 32 31 30 32 32
31 30 30 29 29 30 30 30 31 32 31 28 25 24 23 23 23 23 23 24 23 23 25 26 25 19 13 12 16 18 19 19 17 17 18 19 21 22 22 21 21 22 24 23 21 22 22 22 24 24 26 28 27 26 26 24 22 20 19 21 21 20 22 19 18 25 28 29 35 35 26 26 32 34 32 29 27 29 29 29 31 29 28 29 31
30 30 29 28 28 30 30 29 29 30 30 29 26 24 25 24 24 24 24 23 23 25 26 21 14 10 9 11 16 18 19 18 18 18 19 19 20 20 19 18 18 21 23 21 19 19 20 22 24 25 26 27 24 22 23 23 24 22 19 20 19 19 23 24 25 25 20 22 31 30 23 26 32 33 32 24 16 18 24 27 29 29 28 27 29
Wind_Direction
263 268 274 275 277 280 282 286 291 296 298 294 293 292 292 295 294 292 295 298 300 303 304 301 301 300 301 303 303 303 305 307 307 304 301 301 303 301 296 290 279 269 269 266 263 262 254 244 239 239 241 237 232 228 224 222 223 223 223 224 225 226 225 225 225 225 224 224 224 222 223 226 225 223 221 220 220 220 220 224 228 231 235 238 243
267 271 273 273 275 276 278 282 286 293 298 296 294 292 290 291 288 287 294 297 299 300 302 303 301 299 298 297 296 296 297 301 305 301 297 298 304 306 305 300 283 272 280 288 283 275 260 243 239 238 237 236 237 233 229 226 224 224 225 225 226 226 227 227 227 227 227 227 227 226 226 227 228 228 227 226 225 224 223 225 228 230 234 238 242
270 272 272 273 273 273 276 279 281 285 293 292 288 285 280 280 282 290 302 304 304 301 301 305 301 297 297 297 296 291 290 292 294 294 291 293 300 305 305 300 289 276 278 286 287 279 264 253 245 241 238 235 238 236 232 229 228 226 226 229 229 228 228 229 229 228 229 230 230 229 229 230 231 231 232 231 230 229 227 227 228 231 232 236 241
269 271 272 273 273 273 274 274 277 283 286 279 273 276 279 287 299 309 313 311 312 308 303 302 299 295 297 302 302 295 289 285 285 285 283 284 291 298 300 293 284 276 271 274 279 270 258 259 255 248 243 241 242 243 240 235 233 231 229 231 233 232 231 231 232 231 230 231 232 233 232 233 233 234 235 235 234 233 232 230 229 231 233 235 240
268 271 273 274 274 273 272 269 273 278 279 275 272 280 291 309 321 323 326 327 324 320 310 302 299 298 299 302 302 302 296 286 281 281 280 279 283 287 291 289 279 275 274 274 276 267 254 257 261 254 247 245 246 248 248 244 241 240 234 233 234 236 236 234 234 234 233 231 232 235 236 235 236 236 238 239 239 238 236 234 232 233 234 236 239
268 271 273 275 274 273 271 269 271 276 279 283 290 298 309 323 326 327 335 334 327 328 321 313 309 303 302 300 299 302 300 293 282 277 277 279 281 282 284 286 279 274 279 282 282 277 264 260 265 266 259 252 251 253 255 253 251 250 244 240 237 236 238 239 238 237 236 235 234 235 237 238 238 238 239 241 242 241 240 238 236 236 237 237 239
266 269 272 273 273 272 270 269 275 283 286 290 301 309 315 322 329 333 336 332 326 327 322 318 315 308 308 305 303 302 297 295 288 280 279 280 281 281 282 283 278 272 276 285 288 286 280 273 272 276 274 266 260 256 256 256 253 253 253 250 246 242 241 241 243 242 240 239 238 236 237 238 240 240 240 241 242 243 243 241 240 240 240 241 242
264 266 270 272 275 274 272 275 280 286 287 288 297 300 300 307 324 329 325 324 321 319 317 315 313 310 311 309 309 307 298 293 290 288 286 283 279 278 280 282 280 275 275 284 290 291 291 286 280 278 277 274 269 261 256 254 250 250 253 254 254 252 248 246 244 245 246 244 242 241 239 238 240 241 242 241 242 243 244 244 243 243 243 244 245
261 262 266 270 274 274 277 285 285 284 286 287 280 275 288 301 310 317 317 317 314 313 314 312 310 310 313 314 313 309 303 299 293 294 292 288 284 279 277 280 281 280 281 285 291 294 296 296 290 283 280 278 274 270 265 261 256 254 254 255 258 258 256 254 250 246 247 248 246 246 245 243 241 241 242 243 243 243 244 245 246 246 246 246 246
256 260 262 264 266 271 283 288 282 276 271 269 267 282 302 308 309 311 312 312 312 313 314 312 308 309 313 316 315 309 305 302 300 305 302 296 293 285 279 281 285 288 292 294 295 297 297 300 298 292 290 287 281 277 272 270 269 266 263 258 254 251 251 253 253 249 247 248 250 249 248 247 245 243 243 243 245 245 245 246 247 248 248 248 248
254 256 255 256 257 266 271 260 256 253 258 273 288 302 305 306 306 305 303 303 311 315 316 314 308 307 311 314 317 315 312 308 323 349 346 330 317 307 299 294 296 300 306 310 311 314 308 302 299 295 292 287 284 281 275 275 273 267 263 261 256 250 247 248 249 250 248 246 248 250 250 249 248 247 245 244 245 247 247 247 248 249 250 250 250
243 241 239 242 244 247 237 229 238 254 281 301 309 310 308 308 307 304 300 300 312 318 320 318 312 311 313 319 327 324 320 20 59 29 17 16 9 354 345 335 331 335 339 346 348 349 343 327 308 296 290 283 280 280 278 277 272 267 266 266 263 257 254 253 251 253 253 250 248 248 250 251 251 249 247 247 247 248 248 249 249 250 251 251 252
222 221 223 228 230 229 228 235 254 281 309 317 315 313 312 311 305 302 299 305 321 327 332 329 327 329 327 334 350 9 24 128 72 30 33 44 38 39 27 19 13 9 5 3 5 1 356 350 335 313 300 293 289 286 282 278 272 271 272 271 270 265 261 258 255 255 256 257 255 251 250 250 252 252 250 249 249 250 250 251 251 251 251 252 252
209 209 216 222 223 228 237 253 274 305 318 313 309 308 306 302 296 298 297 310 326 338 346 348 348 342 330 333 354 39 82 142 61 25 53 55 45 64 51 37 24 11 1 355 353 351 348 346 343 336 328 321 316 309 296 285 277 275 275 276 276 271 267 264 262 259 256 258 258 256 254 251 251 252 253 252 250 251 252 253 253 252 252 253 253
205 208 214 216 220 231 245 263 289 308 307 299 297 294 292 289 286 294 294 306 314 286 1 8 355 343 333 332 357 19 20 90 353 358 59 51 42 58 33 23 13 357 347 347 348 350 349 346 344 342 342 339 333 327 314 301 294 285 279 278 279 277 275 272 269 266 260 257 256 254 255 253 251 250 251 252 252 252 252 253 255 254 255 254 254
208 211 213 216 225 236 246 261 284 294 291 284 285 280 281 281 275 286 298 314 330 66 20 19 357 350 352 341 12 6 357 355 338 332 58 27 31 41 19 20 11 1 359 2 5 3 357 351 347 344 341 338 334 330 323 317 310 300 288 280 279 280 280 276 272 271 266 262 259 256 255 254 254 253 251 250 251 252 252 253 254 255 256 256 256
209 212 214 220 229 234 233 238 262 276 276 277 280 271 264 259 251 269 309 338 2 12 17 12 349 345 349 322 359 9 302 327 337 317 324 344 354 18 9 15 10 12 25 22 19 13 7 5 1 356 351 345 339 332 326 324 319 313 306 298 292 284 280 277 275 275 270 266 263 260 257 256 256 256 254 252 250 251 252 253 254 255 256 257 257
206 207 212 219 219 219 216 220 242 252 266 285 281 261 244 227 226 236 289 339 348 2 14 3 345 341 18 8 251 290 298 328 346 317 324 336 324 335 353 5 7 25 35 23 19 19 21 22 20 19 13 7 360 351 341 334 328 324 319 314 310 301 293 288 284 279 273 270 269 266 262 259 259 259 257 256 253 252 251 251 253 254 256 257 257
202 204 212 217 210 211 213 217 236 246 269 291 280 254 234 218 223 232 236 334 345 7 9 355 352 53 112 240 255 264 283 315 330 311 323 327 314 322 341 1 11 37 32 23 22 25 33 35 32 31 26 20 13 5 356 348 340 334 328 322 318 310 306 302 296 289 279 274 272 269 265 261 260 260 260 259 258 255 252 250 251 252 254 256 257
202 211 217 221 218 219 218 220 233 243 268 286 269 246 236 224 228 247 285 328 325 303 310 312 305 326 338 259 273 275 268 267 263 290 303 298 313 320 337 352 12 41 27 22 26 29 36 38 36 35 32 29 21 15 6 357 348 341 335 331 325 317 314 310 306 300 288 280 274 268 266 263 261 261 261 260 259 258 254 250 250 250 252 254 256
207 216 220 227 231 228 221 222 230 239 263 277 254 238 241 233 233 262 291 295 276 258 246 255 269 291 329 323 291 298 280 268 263 263 262 281 304 311 329 343 356 12 16 21 28 34 37 35 35 34 33 32 26 20 12 5 358 351 344 337 330 322 316 311 308 303 291 284 277 270 268 266 263 262 260 258 257 258 257 254 251 250 251 252 253
210 216 221 230 233 230 226 225 227 235 259 266 240 235 243 239 251 276 287 279 264 254 241 238 255 269 295 298 264 271 276 277 249 244 259 265 276 294 312 334 333 333 359 15 22 33 37 34 35 32 30 28 22 17 11 7 3 357 351 343 334 325 316 310 307 300 291 285 277 273 270 266 265 263 261 260 259 258 258 256 255 252 250 250 251
212 215 222 233 236 232 229 223 225 239 259 256 230 228 241 242 261 273 272 269 254 247 237 239 253 256 262 268 265 253 244 247 229 228 247 254 271 298 307 322 309 303 340 360 10 27 33 32 31 28 24 21 16 11 5 1 360 356 352 347 340 334 325 314 307 298 291 287 280 275 270 264 264 263 263 264 263 261 258 256 255 253 251 251 251
212 217 226 237 235 225 220 220 232 253 261 251 229 223 238 247 257 261 264 272 264 254 245 251 264 261 255 250 257 265 256 259 242 230 240 248 265 287 301 320 317 300 327 343 354 4 19 25 21 19 17 15 12 8 2 358 357 355 350 347 344 340 333 325 315 304 293 286 281 278 274 268 265 263 261 261 261 261 259 255 254 254 254 253 251
214 220 229 234 226 218 219 229 249 263 260 247 231 226 239 255 258 262 266 272 276 271 261 266 275 271 256 241 245 256 252 256 254 249 250 248 257 273 288 310 306 304 318 330 338 341 351 4 6 6 3 3 3 0 358 357 356 356 351 346 344 341 336 331 323 314 303 291 283 276 274 273 270 268 263 259 257 257 257 256 255 255 255 255 253
218 223 231 230 223 221 230 248 257 258 251 241 232 231 242 253 256 261 267 272 278 279 272 267 268 267 259 251 252 254 250 253 258 263 264 254 247 251 268 295 291 293 306 313 320 325 329 338 347 354 352 351 352 351 351 353 354 353 350 345 342 341 338 334 328 320 312 302 291 280 272 270 271 270 267 261 258 257 256 256 256 256 254 254 255
222 228 233 228 224 229 244 255 250 242 240 236 232 233 239 245 248 253 263 275 283 284 278 266 260 260 262 263 262 260 258 258 260 264 266 264 257 246 246 274 288 290 298 303 307 306 310 324 335 343 345 344 344 343 343 346 350 349 347 345 342 341 339 336 331 324 317 310 303 291 277 269 267 268 267 263 261 258 256 255 255 257 256 253 253
226 231 233 229 229 235 245 248 237 231 233 232 229 226 233 243 247 255 263 273 281 285 281 268 261 261 263 267 269 270 270 264 261 261 262 265 266 260 250 243 244 277 303 293 303 305 308 317 326 333 338 338 338 339 339 340 345 346 344 343 341 340 339 336 332 328 323 316 310 302 288 274 266 266 266 264 262 259 257 255 254 255 256 254 251
228 232 231 228 226 229 237 239 233 232 230 231 230 226 237 249 254 259 262 265 271 276 277 271 267 265 266 269 271 272 271 264 262 261 261 263 262 261 260 249 234 222 264 283 257 267 296 306 310 320 330 333 333 336 337 337 341 343 342 341 341 340 339 336 333 331 328 322 315 309 299 284 270 265 264 264 263 261 257 255 253 253 253 253 251
229 231 225 220 221 224 232 237 234 233 232 234 235 234 242 251 255 260 260 260 262 265 269 271 271 269 268 270 270 271 270 263 262 262 260 261 260 261 264 260 247 233 226 251 264 250 276 296 300 308 321 327 329 331 333 334 337 340 339 339 341 343 343 340 337 334 332 328 321 314 307 294 278 268 265 264 264 262 260 256 254 252 251 250 250
227 225 219 219 223 226 232 236 236 236 238 239 240 242 246 251 256 260 261 260 260 262 266 269 271 269 269 270 270 271 274 271 267 267 262 259 260 261 263 261 255 251 243 236 259 260 264 286 299 305 314 320 323 326 329 330 333 336 337 337 339 342 344 344 342 339 336 332 328 321 313 303 288 275 269 266 265 264 262 258 255 253 251 249 248
224 222 221 223 226 229 232 235 236 238 239 240 243 245 249 254 258 262 265 264 264 266 268 269 270 269 268 272 274 275 278 277 274 273 270 264 261 261 262 261 258 259 254 240 240 270 272 280 293 301 309 316 318 321 325 326 328 331 333 335 337 339 340 341 342 341 339 334 330 326 318 309 296 282 274 270 267 265 262 260 258 254 251 249 247
223 222 223 225 228 231 232 234 237 239 240 240 242 245 249 255 258 261 264 265 266 267 269 269 268 268 268 270 274 277 278 279 279 279 277 273 267 261 260 261 260 260 259 251 247 270 281 284 289 296 305 311 313 316 321 323 323 326 328 332 335 336 336 336 336 338 338 335 330 327 322 314 303 289 280 274 269 266 263 260 259 256 252 249 246
223 225 228 228 230 232 233 236 239 241 243 244 246 248 250 254 256 258 260 262 267 269 270 270 268 268 268 268 274 279 279 280 282 282 282 279 274 268 263 262 262 263 264 260 256 265 282 287 288 294 300 305 308 311 316 318 319 320 323 327 332 333 333 333 331 332 335 334 330 326 322 317 308 296 286 278 273 267 263 260 258 257 253 250 246
224 228 231 231 232 234 236 239 242 244 247 249 252 256 257 257 256 256 258 262 267 270 270 271 271 269 268 269 273 277 279 281 283 284 283 281 277 275 273 271 269 269 270 267 263 265 278 286 288 291 296 300 303 307 311 315 316 316 318 323 328 330 331 331 329 329 331 330 328 325 322 318 313 303 292 283 277 270 264 260 257 256 254 251 247
225 229 233 234 235 237 239 243 246 248 250 252 257 262 264 264 261 258 258 259 262 267 269 271 272 270 269 269 271 276 281 285 287 286 284 281 280 279 280 281 280 278 277 274 270 269 274 282 286 286 290 296 300 303 307 311 313 313 315 319 323 325 328 328 327 327 328 327 325 323 320 318 314 309 299 288 281 275 268 261 257 255 253 251 248
228 230 234 235 236 239 241 244 248 250 252 256 260 264 265 266 265 263 260 257 258 262 267 271 273 271 269 268 270 276 283 286 289 289 287 285 284 283 283 285 285 286 285 282 278 275 272 274 281 285 287 292 297 300 303 307 310 311 313 317 320 321 323 324 324 325 326 325 324 322 319 317 314 312 306 294 284 278 272 264 258 254 251 250 248
231 233 235 236 237 239 242 246 250 253 255 257 259 261 262 263 264 263 258 253 254 259 265 269 271 270 269 269 271 275 279 285 289 290 289 288 286 285 285 286 287 289 289 287 285 280 274 272 277 283 287 292 295 296 299 303 305 306 309 314 317 318 318 320 321 322 324 323 322 321 319 316 314 312 310 302 290 279 274 267 260 255 251 248 247
233 233 234 235 237 239 245 251 254 256 256 255 255 256 257 258 260 259 254 250 252 259 265 267 268 269 269 270 271 272 274 281 288 291 290 287 285 284 284 286 288 288 289 291 290 283 276 274 277 281 286 291 292 290 295 302 304 302 302 306 310 313 316 317 316 317 320 321 321 320 318 314 311 310 309 307 299 287 277 270 262 256 251 248 246
235 233 229 231 236 242 250 254 255 255 253 252 251 250 251 257 259 256 253 252 255 260 263 264 266 267 268 270 270 270 273 277 284 290 289 284 283 282 283 285 287 286 288 291 289 283 277 276 278 282 287 290 289 287 292 299 301 301 303 303 300 302 310 314 314 315 316 316 317 318 318 315 311 307 306 303 301 295 284 275 266 258 252 247 245
236 236 231 232 238 245 252 254 252 251 251 252 250 247 252 261 261 259 256 255 258 260 262 264 265 265 266 268 269 270 272 273 278 284 284 280 278 279 281 285 286 286 286 286 284 280 276 275 279 284 288 288 287 288 290 292 290 293 300 302 298 297 304 307 309 314 315 311 311 312 313 312 306 301 299 296 296 296 289 280 272 262 254 248 243
237 237 232 233 239 247 252 252 248 249 252 254 250 247 254 262 263 263 263 261 260 260 263 266 267 266 265 266 269 271 271 271 272 277 281 278 274 274 279 283 285 284 282 280 278 277 275 276 280 284 287 287 288 289 288 288 288 291 295 298 296 300 305 304 305 311 313 311 309 306 306 308 303 295 293 291 289 290 287 280 274 267 259 251 244
242 240 233 233 240 247 250 248 246 249 252 253 249 247 251 257 259 262 263 263 263 262 264 267 267 268 268 269 272 273 273 271 269 273 280 277 272 272 275 278 281 282 279 276 274 274 274 273 277 283 284 285 289 291 289 288 288 289 292 295 296 298 302 303 302 306 309 310 308 301 300 304 303 293 287 288 286 284 282 277 273 270 265 257 249
243 240 234 236 242 247 248 246 246 248 252 253 249 246 249 252 254 257 258 260 263 263 265 266 268 269 270 272 276 277 277 274 270 272 278 277 273 271 272 275 278 280 279 275 272 273 274 275 279 284 284 284 288 289 288 288 289 292 293 295 296 294 295 297 296 296 303 308 308 300 296 300 303 294 283 283 284 281 279 276 272 269 266 262 256
241 240 237 240 245 247 246 244 245 249 253 252 247 246 249 250 251 255 257 259 261 263 264 265 267 269 270 273 276 280 281 277 271 272 278 278 275 272 272 274 274 277 279 278 274 274 275 277 279 281 283 284 284 285 288 291 292 294 295 294 294 294 292 294 293 292 299 306 304 298 294 296 299 293 281 280 282 279 278 276 271 266 264 262 258
240 241 240 243 246 246 245 244 245 250 253 251 247 246 248 248 250 256 260 261 262 263 265 266 267 268 269 271 275 280 282 278 272 273 277 279 277 274 274 273 273 276 279 278 277 277 278 281 282 284 287 288 283 284 291 295 293 292 293 291 292 294 292 292 293 292 297 304 301 294 290 293 295 291 282 279 279 278 277 275 271 266 262 259 257
240 242 244 246 246 246 246 245 245 249 254 253 249 248 250 250 252 256 260 262 262 263 264 265 266 265 266 269 274 278 278 272 269 272 276 278 277 276 275 274 275 278 280 279 279 278 281 288 290 289 291 292 290 289 291 293 292 290 290 290 290 292 291 292 292 290 294 303 302 290 282 289 292 288 282 278 275 274 274 273 271 267 261 257 255
243 245 246 246 246 246 247 246 245 247 254 256 253 252 253 252 253 256 257 258 260 262 264 266 266 264 262 265 273 276 272 267 267 270 275 276 275 274 274 275 277 280 280 280 280 281 285 290 292 291 291 292 293 292 291 292 292 291 293 293 291 292 292 292 292 289 292 301 301 289 279 285 288 284 281 278 273 270 270 269 268 266 260 255 253
242 244 245 245 246 248 248 247 246 249 255 259 258 257 258 257 256 256 256 260 263 263 266 268 266 261 256 262 277 278 269 265 267 271 273 274 274 275 275 276 277 278 279 281 284 289 290 291 292 294 296 298 300 301 301 301 298 297 297 292 289 293 295 293 295 294 293 295 296 292 282 279 282 281 279 277 272 267 266 265 265 263 258 253 250
243 244 245 246 247 248 247 247 250 254 259 262 262 262 263 263 260 258 261 265 268 269 271 270 267 263 254 262 276 273 264 265 270 273 275 276 276 276 275 275 276 276 280 286 292 295 295 296 300 303 306 309 310 309 310 309 306 304 294 285 286 293 294 292 292 296 294 288 290 293 283 274 279 281 279 278 272 264 261 260 262 259 253 250 248
245 245 244 246 248 248 247 248 251 256 260 263 265 264 265 265 265 267 268 269 272 275 275 269 268 281 285 279 277 269 262 264 269 273 277 277 276 276 275 273 273 276 284 292 297 298 299 302 308 311 313 314 313 310 310 310 310 309 299 291 290 289 290 291 291 295 294 286 290 295 285 278 283 281 277 278 273 263 260 259 259 255 246 242 243
Height
848 848 849 848 848 848 848 848 848 848 848 847 847 847 847 847 847 846 846 846 846 846 846 845 845 844 844 844 843 843 842 842 842 842 841 841 842 842 843 842 843 841 839 840 842 844 846 848 849 849 851 853 852 852 852 851 851 851 852 853 854 855 856 856 857 858 859 860 860 861 861 862 863 863 863 864 864 865 866 867 867 868 869 869 870
847 847 847 847 847 848 847 848 847 847 847 847 847 847 847 847 846 846 845 845 845 845 844 844 844 843 843 842 842 842 841 840 840 840 840 840 841 841 842 842 841 840 838 839 841 843 846 847 846 846 848 850 850 850 850 850 850 850 850 851 852 853 854 855 856 857 858 858 859 860 860 861 862 862 863 863 864 864 865 865 866 867 868 868 869
846 846 846 846 846 847 847 847 846 847 847 847 847 847 846 846 845 845 845 844 844 843 843 843 843 842 841 841 840 840 839 839 839 838 838 839 839 840 840 841 840 840 839 839 840 843 846 845 844 845 846 847 848 848 848 848 848 848 849 850 851 852 853 854 855 855 856 857 858 859 859 860 861 861 862 862 863 863 864 864 865 865 866 867 867
845 845 845 845 846 846 846 845 846 846 846 846 846 846 845 845 844 844 844 843 843 842 842 841 841 841 840 839 839 838 838 837 837 837 837 837 838 838 839 839 839 840 839 839 840 843 844 843 843 844 844 845 846 846 846 846 847 848 848 849 850 851 852 853 853 854 855 856 857 857 858 859 859 860 861 862 862 863 863 863 864 864 865 865 866
844 844 844 844 845 845 845 844 845 845 845 845 845 845 845 844 843 843 842 842 842 841 840 840 840 839 838 838 837 837 836 835 835 835 835 835 836 837 837 838 838 839 839 839 840 841 842 841 841 842 843 843 843 844 845 845 846 847 848 848 849 850 851 851 852 853 853 854 855 856 857 857 858 859 860 861 861 862 863 863 863 863 864 864 864
843 843 843 843 844 844 844 844 844 844 844 844 844 844 843 843 842 842 841 841 841 840 839 838 838 837 837 837 836 835 834 834 834 833 833 833 834 835 836 836 837 837 838 838 839 839 840 840 839 840 842 842 842 843 843 845 846 847 847 848 848 849 850 850 851 851 852 853 854 854 855 856 857 858 858 859 860 861 862 862 862 862 863 863 863
842 842 842 842 842 843 843 843 843 843 843 843 843 842 842 841 841 840 840 840 839 839 838 837 836 836 835 835 834 834 833 832 832 832 832 832 832 833 833 834 835 836 836 837 837 838 838 839 839 839 840 840 840 841 841 843 844 846 847 848 848 848 849 849 850 850 851 851 852 853 853 854 855 856 857 858 859 860 860 861 862 862 862 862 862
841 841 841 841 841 842 843 843 843 843 842 842 842 841 841 840 839 839 839 839 838 837 837 836 835 834 833 833 832 832 831 831 831 831 830 830 830 831 831 832 833 834 834 835 836 836 837 837 837 837 837 838 837 837 838 840 842 843 845 847 848 848 848 848 848 849 849 850 850 851 852 852 853 854 855 856 857 858 859 860 861 861 861 861 861
840 841 841 840 840 841 841 841 842 842 841 841 841 840 840 839 839 839 838 838 837 836 835 834 833 832 832 831 831 830 830 830 830 829 829 829 829 829 829 830 831 832 832 833 834 834 835 835 835 834 834 835 835 835 836 839 841 842 844 846 847 848 847 846 847 848 847 848 848 849 850 850 851 852 853 854 855 856 857 858 859 860 860 860 860
840 840 840 840 840 840 840 841 841 841 841 841 840 840 839 838 838 838 837 837 836 835 834 833 833 831 830 830 829 829 828 828 828 828 828 827 827 827 828 828 829 830 831 832 832 833 833 834 833 831 830 831 832 833 835 837 840 842 843 844 843 843 843 841 842 844 845 845 846 846 847 848 849 850 850 852 853 854 855 856 857 858 859 859 860
839 839 839 839 839 840 840 840 840 840 840 840 840 839 838 838 837 837 836 836 835 835 834 833 832 831 830 829 828 828 827 827 828 828 827 827 826 826 826 827 828 828 829 830 830 831 832 832 832 831 830 830 831 832 833 836 838 839 840 839 838 838 838 837 838 839 841 842 843 844 845 846 847 848 849 849 850 852 853 854 855 856 857 858 858
838 838 838 839 839 839 840 840 840 840 839 839 839 838 837 837 836 836 836 835 835 834 833 833 831 830 829 829 828 827 827 827 827 827 827 826 826 826 826 826 827 827 828 828 829 830 830 831 831 831 830 830 831 831 832 835 836 836 836 836 836 837 837 836 836 837 838 840 841 842 843 844 844 845 846 847 848 849 850 852 853 854 855 856 857
837 838 838 838 839 839 839 839 839 839 838 838 837 837 836 836 835 835 835 835 835 834 833 833 831 830 829 828 828 827 827 827 827 827 826 826 826 826 826 826 826 827 827 827 828 828 829 829 829 829 829 829 830 830 831 833 833 833 833 833 833 834 834 833 834 834 835 837 839 841 841 842 842 843 844 845 846 847 848 849 851 852 853 854 855
837 837 838 838 838 839 838 839 838 838 838 837 837 836 836 836 835 835 835 834 834 834 833 833 832 832 830 829 828 827 826 826 826 826 826 826 826 826 826 826 826 826 826 827 827 827 827 828 828 828 828 828 828 829 829 830 830 830 830 830 830 830 830 830 830 831 832 833 835 837 839 840 840 841 841 842 843 845 846 847 848 849 851 852 853
836 836 837 837 837 838 838 838 838 838 837 837 836 836 836 835 835 835 835 834 834 834 834 833 833 833 832 832 831 830 828 827 826 826 826 826 826 826 826 826 826 826 826 826 826 826 826 826 827 827 827 827 827 827 827 827 827 827 827 827 827 827 827 827 827 828 830 830 830 831 834 836 838 839 839 840 841 842 843 844 846 847 848 849 851
835 836 836 836 837 837 837 837 838 838 837 837 836 836 836 835 835 835 835 835 834 834 834 834 834 834 834 834 833 833 833 830 828 826 826 827 826 826 826 826 826 826 825 825 825 825 825 825 825 825 825 825 825 825 825 825 825 825 824 824 825 825 825 824 825 826 828 828 828 828 830 831 834 836 837 838 839 839 840 841 843 844 845 847 848
834 835 835 836 836 836 837 837 837 837 837 837 836 836 835 835 835 835 835 835 834 834 834 834 834 834 835 835 835 836 835 833 831 828 826 826 827 826 826 826 825 825 825 825 825 825 825 825 825 824 824 824 824 823 823 823 823 823 822 822 822 822 822 823 823 825 826 826 826 827 828 829 830 832 834 835 836 837 837 838 839 841 842 844 845
833 834 834 835 836 836 836 837 837 837 837 837 836 835 835 835 835 835 835 835 834 834 834 834 834 834 834 835 835 836 835 834 834 831 828 826 826 826 826 826 825 825 825 825 824 824 824 824 824 824 823 823 823 822 822 822 821 821 821 820 820 820 821 821 822 823 823 825 825 826 827 827 827 828 830 831 833 834 834 835 836 837 838 840 842
832 833 834 834 835 835 836 836 836 836 836 836 835 835 835 835 835 835 835 835 834 834 834 834 834 834 834 834 834 835 834 834 835 834 833 829 827 826 826 826 825 825 824 824 824 823 823 823 823 823 823 822 822 822 821 821 820 820 819 819 819 819 819 819 820 820 821 822 823 823 823 824 824 825 826 827 829 830 831 831 832 833 834 836 838
832 832 833 834 834 834 835 835 835 836 835 835 835 835 835 835 835 835 835 835 834 834 834 834 834 834 834 834 834 834 834 834 834 834 835 834 829 826 826 825 825 825 825 824 824 823 823 823 823 823 822 822 821 821 820 820 819 819 818 818 817 817 817 817 818 818 818 819 820 819 819 820 821 821 822 823 824 826 827 827 827 828 830 832 833
831 831 832 833 833 833 834 834 834 835 835 835 835 835 835 835 835 835 834 834 834 834 834 834 834 834 834 834 834 834 834 834 834 833 834 835 832 829 827 825 824 825 825 825 824 824 823 823 823 822 822 822 821 820 820 819 819 818 817 817 816 816 816 816 816 817 817 816 816 816 816 817 817 817 818 819 820 821 823 824 824 823 824 827 829
829 830 831 831 832 832 833 833 834 834 834 834 834 834 834 834 834 834 834 834 834 834 833 834 834 834 834 834 834 834 834 834 834 834 833 834 833 830 829 828 827 825 825 825 825 824 823 823 823 822 822 821 821 820 819 819 818 817 816 816 815 814 814 814 814 815 815 814 814 813 813 813 814 814 814 815 816 817 818 820 821 820 820 821 824
828 829 830 830 831 831 832 832 833 833 833 833 834 834 834 834 834 834 834 834 833 833 833 833 833 834 834 834 833 833 833 833 833 833 833 833 833 831 830 829 828 826 825 825 824 824 823 823 822 822 821 821 820 820 819 818 818 817 816 815 814 813 812 812 812 812 812 812 811 811 811 811 811 811 811 811 812 812 813 815 816 817 816 817 819
827 828 829 829 830 830 831 831 832 832 832 832 833 833 833 833 833 834 834 833 833 833 833 833 833 833 833 833 833 833 833 833 833 833 833 833 833 832 831 829 828 826 825 824 824 823 823 822 822 821 821 820 820 819 818 818 817 816 814 813 812 811 810 810 810 810 809 809 809 808 808 808 808 808 808 808 808 808 809 810 811 813 813 813 814
826 827 828 828 829 829 830 830 831 831 831 832 832 832 832 832 833 833 833 833 833 833 833 833 832 832 832 832 832 832 832 833 833 833 833 833 833 833 832 831 829 827 824 824 823 822 821 821 821 820 820 820 819 818 818 817 816 814 813 811 810 810 808 808 807 806 806 806 805 805 805 804 804 804 804 804 804 805 805 806 806 808 809 810 811
825 826 827 828 828 829 829 830 830 830 830 831 831 831 831 831 832 832 832 832 832 832 832 832 832 832 831 831 831 831 832 832 833 833 833 833 833 833 832 832 831 828 825 824 823 822 821 820 820 819 819 818 818 817 816 815 814 813 812 810 808 807 806 805 804 803 802 802 801 801 800 800 800 800 800 800 800 801 801 802 803 804 805 806 808
824 825 826 826 827 828 829 829 829 829 829 829 830 830 830 830 831 831 831 831 831 831 831 831 831 831 831 831 830 830 831 831 832 832 832 832 832 832 832 832 831 829 826 824 822 821 820 819 818 818 817 817 816 816 815 814 813 811 810 808 806 805 804 803 801 800 799 798 797 797 796 796 795 795 795 796 796 797 797 797 798 799 801 802 803
822 823 824 825 826 827 827 828 828 828 828 828 828 828 829 829 830 830 830 830 830 830 830 830 830 830 830 830 830 830 830 830 831 831 831 831 831 831 831 831 831 830 828 826 823 821 820 818 817 816 816 816 815 814 813 812 811 809 808 806 804 802 801 800 799 798 796 795 794 793 792 791 791 791 791 792 792 793 793 793 794 795 796 798 799
821 821 822 823 824 825 825 826 826 827 827 827 827 827 828 828 828 829 829 829 829 829 829 829 829 830 830 830 830 829 829 829 830 830 830 830 830 830 829 829 829 830 829 826 824 821 819 818 817 815 814 814 813 813 812 811 809 808 806 804 802 800 799 798 796 795 794 792 791 789 788 787 787 787 787 787 788 789 789 789 790 791 792 793 795
819 820 821 822 822 823 824 824 825 825 825 825 826 826 826 827 827 827 827 828 828 828 828 828 828 829 829 829 829 828 828 828 828 828 829 829 828 828 828 828 827 827 827 826 823 820 818 817 816 814 813 813 812 811 810 809 808 807 805 803 801 799 797 796 794 793 792 790 788 787 785 784 783 783 783 783 784 784 785 785 786 786 787 789 790
818 818 819 820 821 821 822 823 823 824 824 824 824 825 825 825 825 826 826 826 826 826 827 827 827 827 827 827 827 827 827 827 827 827 827 827 827 827 826 826 826 825 825 825 822 819 817 816 814 813 812 811 810 809 808 808 806 805 803 801 799 797 795 794 792 791 789 788 786 785 783 781 780 779 779 779 779 780 780 781 781 782 783 784 785
816 817 818 818 819 820 820 821 821 822 822 822 823 823 823 823 824 824 825 825 825 825 825 826 826 826 826 826 826 825 825 825 824 825 825 825 825 825 825 824 824 824 823 823 821 816 815 815 813 811 811 809 808 807 806 805 804 803 802 800 797 795 793 792 790 789 787 785 784 782 781 779 777 776 775 775 775 775 776 776 777 778 778 779 780
815 815 816 816 817 818 818 819 819 820 820 821 821 821 821 822 822 823 823 823 823 823 824 824 824 825 825 824 824 824 824 823 822 822 822 823 823 823 823 822 822 822 821 821 819 815 813 813 812 810 809 808 805 804 804 803 802 801 799 798 796 793 792 790 788 787 785 783 781 780 778 776 774 773 772 771 771 771 771 772 772 773 774 775 776
814 814 814 815 816 816 817 817 817 818 818 819 819 819 819 820 820 821 821 821 821 821 822 822 822 823 823 822 822 822 821 821 820 820 820 820 820 820 820 820 820 820 820 819 817 815 812 811 810 808 807 807 804 802 802 801 799 799 797 795 794 791 789 788 786 784 783 781 779 777 775 773 771 770 768 767 767 766 767 767 768 769 769 770 771
812 812 813 814 815 815 815 816 816 816 816 817 817 817 817 818 818 818 819 819 819 819 820 820 820 821 821 820 819 819 819 818 817 817 817 817 818 818 818 818 818 817 818 817 816 814 811 809 808 807 806 805 803 800 799 798 797 796 794 793 791 789 787 785 784 782 780 779 776 774 772 770 768 767 765 763 762 762 762 762 763 763 764 765 766
809 810 811 812 814 814 814 814 814 814 815 815 815 815 815 815 815 816 816 817 817 817 818 818 818 819 818 818 817 817 817 816 815 815 815 815 815 815 815 815 815 815 815 815 814 813 810 807 806 805 804 803 801 799 797 796 794 793 792 791 789 787 785 783 781 779 777 776 774 771 769 767 765 763 761 760 758 758 758 758 758 758 759 760 761
806 808 809 811 812 812 812 812 812 812 812 812 813 813 813 813 813 813 814 814 815 815 815 816 816 816 816 816 815 815 815 814 813 813 813 813 813 813 813 813 813 813 812 812 812 810 809 806 803 802 802 801 799 797 795 794 792 790 788 787 786 785 782 780 778 776 774 772 770 768 766 764 762 759 757 756 754 753 753 753 753 753 754 755 756
804 806 807 808 809 809 810 810 810 810 810 810 810 810 811 811 811 811 811 811 812 812 813 813 814 814 814 814 813 813 813 812 811 811 811 811 811 810 810 810 810 810 810 809 809 808 807 805 802 800 799 799 797 795 793 792 791 788 785 784 783 782 780 777 775 773 771 769 767 765 763 761 758 756 754 752 751 749 748 748 748 748 749 750 751
802 803 804 805 806 807 807 807 808 808 807 807 808 808 809 809 809 809 809 809 810 810 810 811 811 811 811 811 811 811 811 810 810 809 809 809 808 808 808 808 808 808 807 806 806 806 804 803 800 799 797 796 796 793 791 790 788 786 784 782 779 778 776 775 772 770 768 766 764 762 760 758 755 753 751 749 747 745 744 743 743 743 744 745 746
799 800 800 801 803 804 805 805 805 806 805 805 806 807 807 808 808 807 807 807 807 808 808 808 808 809 809 809 809 808 808 808 808 808 807 807 806 806 806 806 806 806 805 804 804 803 802 801 799 797 795 794 793 792 790 788 786 784 782 780 778 775 773 771 769 767 765 762 760 757 756 754 752 750 748 745 743 741 740 738 738 738 738 739 740
795 797 797 799 800 801 802 803 803 804 803 803 804 805 806 806 805 805 805 805 805 805 805 805 806 806 806 806 806 806 806 806 806 806 805 805 805 804 804 804 804 803 803 802 801 800 800 799 797 795 794 792 790 789 788 786 784 782 780 778 776 772 770 767 765 764 762 759 757 754 752 752 750 747 744 742 739 738 736 734 733 733 733 734 735
792 794 795 796 797 798 799 800 801 801 801 801 802 803 803 803 803 803 803 803 803 803 802 803 803 803 803 803 803 803 803 803 804 804 803 803 803 802 802 802 801 801 800 799 799 798 797 797 795 794 792 789 787 786 785 783 782 780 778 776 774 770 768 765 761 760 760 757 754 751 749 748 747 744 741 738 736 734 732 730 729 728 728 729 730
791 792 793 793 794 795 796 797 798 798 798 799 800 800 801 800 800 800 800 800 800 800 800 800 800 800 800 800 800 800 800 800 801 801 801 801 800 800 800 799 799 799 798 797 796 795 794 794 793 792 790 787 785 783 782 780 779 778 776 775 772 769 766 763 759 756 755 755 752 748 744 744 744 741 736 733 731 730 728 726 725 725 724 724 725
790 790 791 791 792 793 794 794 795 795 795 796 797 798 798 798 798 797 797 798 798 798 797 797 797 797 797 797 797 797 797 797 798 798 798 798 798 797 797 797 797 796 795 794 793 792 791 790 790 789 787 785 783 781 778 777 776 775 774 773 770 767 765 763 759 754 751 751 750 745 740 739 739 736 731 728 726 725 723 722 721 720 720 720 720
788 789 789 789 789 790 791 791 792 792 792 793 794 795 795 795 795 795 795 795 795 795 794 794 794 794 794 794 794 794 794 795 795 795 795 795 795 795 794 794 793 793 792 791 790 789 788 788 787 786 784 783 781 778 775 774 774 773 771 770 768 765 762 760 757 752 749 748 747 742 736 734 734 731 726 723 721 720 718 716 716 716 715 715 716
785 786 786 786 787 788 788 789 789 789 789 790 791 792 792 792 793 793 792 792 792 791 791 791 791 791 791 792 792 792 793 793 793 793 792 792 791 791 791 790 790 789 789 788 788 787 786 785 784 782 780 780 779 776 774 772 771 770 768 767 765 762 760 757 754 750 746 745 744 740 732 729 729 726 720 717 716 713 712 711 710 710 710 710 711
782 783 783 784 784 785 786 786 787 786 786 787 788 789 789 789 790 790 789 789 788 788 788 787 787 788 789 790 790 791 790 790 790 790 789 789 788 787 787 787 786 786 785 785 785 784 783 782 781 779 777 776 775 774 772 770 768 767 766 764 762 759 757 754 750 746 743 741 742 739 730 725 725 721 714 712 711 707 706 705 704 704 705 705 706
780 780 781 781 782 782 783 784 784 784 783 784 785 786 786 786 787 786 786 785 784 784 784 784 784 785 786 788 788 789 788 787 787 787 787 786 785 785 784 783 783 782 781 781 782 781 781 780 778 776 775 773 772 770 769 768 765 763 762 760 758 756 754 751 746 742 739 736 737 736 728 722 721 717 709 706 706 702 699 699 698 698 699 699 700
776 777 777 778 779 780 780 782 782 782 781 781 782 782 783 783 783 783 782 781 781 781 780 781 781 782 783 785 786 787 787 786 785 785 785 784 783 782 781 780 779 778 778 778 778 778 777 776 775 773 772 770 768 766 765 764 762 761 760 757 754 753 751 747 742 738 735 732 730 730 725 718 716 712 705 701 700 696 693 693 692 693 693 694 695
773 774 774 775 776 776 777 779 780 779 779 779 780 780 780 780 780 780 779 778 778 778 778 778 779 780 782 783 784 784 784 784 784 783 782 782 780 779 778 777 776 775 775 775 775 774 774 772 771 770 768 766 764 762 760 759 758 758 758 754 752 750 748 744 739 734 731 726 724 724 720 714 711 708 702 697 693 689 688 687 686 687 688 688 689
770 771 772 772 772 773 774 775 776 775 775 776 777 777 777 777 777 776 776 775 775 775 776 777 778 780 782 782 781 781 781 781 781 780 780 779 777 776 776 775 774 773 772 773 773 771 771 769 768 766 764 763 761 759 757 756 754 754 754 751 749 747 745 741 737 733 727 719 717 719 716 709 706 703 698 695 688 682 681 682 681 681 682 683 684